CW5586 Weather Reports


Display with metric or nautical units.
time (UTC)temp
F
wind
direction
speed
MPH
gust
MPH
rain 1hr
in
rain 24hr
in
rain mn
in
humidity
%
barometer
mb
20260831120116 66 213 5.0 8.0 0.00 0.42 0.00 75 1006.4
20260831114604 66 252 1.0 9.0 0.00 0.42 0.00 74 1006.4
20260831114105 66 257 5.0 9.0 0.00 0.42 0.00 74 1006.4
20260831110604 64 218 2.0 9.0 0.00 0.42 0.00 76 1006.6
20260831110115 64 192 5.0 10.0 0.00 0.42 0.00 75 1006.6
20260831104603 64 180 7.0 10.0 0.00 0.42 0.00 74 1006.7
20260831100116 63 188 5.0 14.0 0.00 0.42 0.00 77 1006.8
20260831091603 63 195 1.0 7.0 0.00 0.42 0.00 80 1006.8
20260831084103 63 177 2.0 8.0 0.00 0.42 0.00 81 1006.5
20260831083604 62 217 7.0 10.0 0.00 0.42 0.00 82 1006.5
20260831074604 62 217 3.0 10.0 0.00 0.42 0.00 83 1006.6
20260831073104 61 191 9.0 8.0 0.00 0.42 0.00 85 1006.6
20260831070605 60 246 1.0 8.0 0.00 0.42 0.00 86 1006.6
20260831070115 60 205 2.0 10.0 0.00 0.42 0.00 86 1006.6
20260831064604 60 164 5.0 7.0 0.00 0.42 0.00 84 1006.6
20260831063603 60 236 5.0 12.0 0.00 0.42 0.00 85 1006.7
20260831060604 59 174 14.0 9.0 0.00 0.42 0.00 88 1006.6
20260831060115 59 211 2.0 9.0 0.00 0.42 0.00 87 1006.5
20260831054604 59 223 2.0 10.0 0.00 0.42 0.00 87 1006.5
20260831053604 58 195 9.0 9.0 0.00 0.42 0.00 88 1006.4
20260831051604 58 242 5.0 8.0 0.00 0.42 0.00 88 1006.3
20260831050115 58 243 5.0 12.0 0.00 0.43 0.00 87 1006.3
20260831044104 58 211 1.0 10.0 0.00 0.43 0.00 87 1006.2
20260831040116 58 222 5.0 10.0 0.00 0.43 0.00 87 1006.2
20260831034605 58 161 2.0 12.0 0.00 0.43 0.00 86 1006.1
20260831034104 58 213 6.0 12.0 0.00 0.43 0.00 86 1006.1
20260831033603 58 201 3.0 10.0 0.00 0.43 0.00 86 1006.1
20260831031605 58 277 5.0 7.0 0.00 0.43 0.00 86 1006.1
20260831030604 58 211 2.0 9.0 0.00 0.43 0.00 85 1006.2
20260831030116 58 232 3.0 9.0 0.00 0.43 0.00 85 1006.1
20260831024604 58 198 3.0 8.0 0.00 0.43 0.00 84 1006.1
20260831023104 58 196 6.0 12.0 0.00 0.43 0.00 85 1006.1
20260831021104 58 246 8.0 9.0 0.00 0.43 0.00 86 1006.1
20260831020604 58 225 2.0 9.0 0.00 0.43 0.00 86 1006.1
20260831014604 58 172 2.0 5.0 0.00 0.43 0.00 87 1006.1
20260831014103 58 198 5.0 7.0 0.00 0.43 0.00 87 1006.1
20260831013604 58 222 2.0 7.0 0.00 0.43 0.00 88 1006.1
20260831013104 58 229 2.0 7.0 0.00 0.43 0.00 88 1006.0
20260831011104 58 252 1.0 9.0 0.00 0.43 0.00 87 1006.2
20260831004604 58 227 5.0 13.0 0.00 0.43 0.00 87 1006.2
20260831004103 58 190 6.0 13.0 0.00 0.43 0.00 88 1006.1
20260831003603 58 201 1.0 8.0 0.00 0.43 0.00 88 1006.2
20260831003103 58 190 7.0 10.0 0.00 0.43 0.00 88 1006.2
20260830234602 58 234 10.0 12.0 0.00 0.43 0.00 89 1006.1
20260830233602 58 200 6.0 7.0 0.00 0.43 0.00 89 1006.0
20260830231603 58 172 1.0 10.0 0.00 0.43 0.00 90 1005.9
20260830231103 58 165 6.0 13.0 0.00 0.43 0.00 90 1005.9
20260830230115 58 255 3.0 9.0 0.21 0.43 0.00 90 1005.8
20260830224604 58 205 8.0 8.0 0.21 0.43 0.00 91 1005.8
20260830224103 58 214 10.0 7.0 0.21 0.43 0.00 91 1005.8
20260830221106 58 200 6.0 10.0 0.21 0.43 0.00 91 1005.6
20260830220603 58 241 3.0 9.0 0.21 0.43 0.00 91 1005.7
20260830220114 58 193 9.0 9.0 0.00 0.43 0.21 91 1005.6
20260830214603 59 212 8.0 9.0 0.00 0.74 0.21 92 1005.6
20260830213103 59 183 2.0 15.0 0.00 0.74 0.21 92 1005.6
20260830211103 58 251 2.0 7.0 0.00 0.74 0.21 92 1005.4
20260830204603 59 190 2.0 6.0 0.00 0.74 0.21 92 1005.3
20260830203603 59 263 8.0 8.0 0.00 0.74 0.21 93 1005.2
20260830203103 59 201 3.0 10.0 0.00 0.74 0.21 92 1005.1
20260830201104 59 235 7.0 12.0 0.00 0.74 0.21 93 1005.0
20260830200603 60 281 3.0 12.0 0.00 0.74 0.21 93 1004.9
20260830200115 60 252 1.0 10.0 0.00 0.74 0.21 93 1004.8
20260830194603 60 262 6.0 10.0 0.00 0.74 0.21 94 1004.7
20260830194103 60 285 9.0 9.0 0.00 0.74 0.21 94 1004.6
20260830193603 60 238 3.0 9.0 0.00 0.74 0.21 94 1004.7
20260830191603 60 290 5.0 6.0 0.00 0.74 0.21 95 1004.5
20260830184104 60 229 1.0 7.0 0.00 1.06 0.21 95 1004.1
20260830180603 59 268 3.0 7.0 0.02 1.13 0.21 95 1003.9
20260830180115 59 199 1.0 8.0 0.02 1.13 0.21 95 1003.8
20260830174604 59 292 1.0 6.0 0.02 1.13 0.21 95 1003.5
20260830170603 60 295 1.0 8.0 0.03 1.11 0.20 94 1002.9
20260830170115 60 254 2.0 13.0 0.04 1.11 0.20 93 1002.8
20260830164603 61 302 7.0 16.0 0.09 1.10 0.19 92 1002.6
20260830161103 64 0 0.0 2.0 0.07 1.08 0.17 94 1001.8
20260830160115 64 0 0.0 0.0 0.07 1.07 0.16 94 1001.8
20260830154603 64 0 0.0 0.0 0.04 1.02 0.10 94 1001.8
20260830154103 64 0 0.0 0.0 0.05 1.02 0.10 93 1001.8
20260830150114 64 0 0.0 2.0 0.05 1.00 0.09 93 1001.9
20260830144603 64 0 0.0 2.0 0.02 0.98 0.06 93 1001.8
20260830144104 64 126 1.0 2.0 0.02 0.97 0.06 93 1001.8
20260830143603 64 0 0.0 2.0 0.02 0.97 0.06 93 1001.9
20260830143104 64 0 0.0 2.0 0.02 0.96 0.05 93 1001.9
20260830141104 63 0 0.0 2.0 0.02 0.95 0.04 93 1001.9
20260830140603 63 175 1.0 2.0 0.02 0.95 0.04 94 1001.8
20260830140115 63 0 0.0 2.0 0.02 0.95 0.04 93 1001.8
20260830133603 63 71 1.0 3.0 0.02 0.94 0.03 93 1001.9
20260830133103 63 83 1.0 3.0 0.02 0.94 0.03 94 1001.8
20260830131104 63 130 2.0 2.0 0.02 0.94 0.02 93 1001.8
20260830130604 63 86 1.0 2.0 0.02 0.94 0.02 92 1001.8
20260830124604 63 109 1.0 2.0 0.01 0.93 0.02 92 1001.9
20260830123103 63 125 1.0 6.0 0.00 0.92 0.01 90 1002.0
20260830121103 63 97 1.0 7.0 0.00 0.92 0.01 90 1002.1